[TLELIST] Archives

 

[TLELIST] Current TLEs

June 25th 2023 PDT

HST 1 20580U 90037B 23176.17087084 .00004366 00000-0 22838-3 0 9993 2 20580 28.4681 214.8814 0002871 105.6844 294.8370 15.13341294622938 ISS (ZARYA) 1 25544U 98067A 23176.18715566 .00030804 00000-0 53796-3 0 9996 2 25544 51.6437 288.8772 0004488 77.3404 345.1305 15.50394583403033 CXO 1 25867U 99040B 23178.53640053 .00000514 00000-0 00000+0 0 9996 2 25867 37.5241 195.4204 9053247 263.5780 0.1219 0.37818418 24377 ...Continue Reading

[TLELIST] Current TLEs

June 24th 2023 PDT

HST 1 20580U 90037B 23174.60499340 .00004105 00000-0 21422-3 0 9990 2 20580 28.4682 225.3022 0002879 90.3145 42.3311 15.13328569622705 ISS (ZARYA) 1 25544U 98067A 23175.35420168 .00029175 00000-0 51074-3 0 9991 2 25544 51.6414 293.0045 0004683 73.8369 16.5789 15.50354236402908 CXO 1 25867U 99040B 23175.89345476 .00000498 00000-0 00000+0 0 9994 2 25867 37.5406 195.7742 9056122 263.2886 0.2947 0.37814863 24367 ...Continue Reading

[TLELIST] Current TLEs

June 23rd 2023 PDT

HST 1 20580U 90037B 23173.54540131 .00004046 00000-0 21102-3 0 9996 2 20580 28.4683 232.3533 0002852 80.1581 28.3820 15.13320329622539 ISS (ZARYA) 1 25544U 98067A 23174.38147447 -.00015143 00000-0 -25524-3 0 9992 2 25544 51.6407 297.8279 0004466 65.9920 351.8704 15.50274892402759 CXO 1 25867U 99040B 23175.89345476 .00000498 00000-0 00000+0 0 9994 2 25867 37.5406 195.7742 9056122 263.2886 0.2947 0.37814863 24367 ...Continue Reading

[TLELIST] Current TLEs

June 17th 2023 PDT

HST 1 20580U 90037B 23167.68257692 .00004521 00000-0 23731-3 0 9999 2 20580 28.4697 271.3650 0002610 22.6416 122.4389 15.13276274621384 ISS (ZARYA) 1 25544U 98067A 23168.39293994 .00016231 00000-0 29044-3 0 9993 2 25544 51.6417 327.5006 0004293 56.3761 38.9062 15.50127835401825 CXO 1 25867U 99040B 23167.95598547 .00000258 00000-0 00000-0 0 9996 2 25867 37.6044 196.8849 9057103 262.3393 359.8060 0.37808990 13180 ...Continue Reading

[TLELIST] Current TLEs

June 17th 2023 PDT

HST 1 20580U 90037B 23167.68257692 .00004521 00000-0 23731-3 0 9999 2 20580 28.4697 271.3650 0002610 22.6416 122.4389 15.13276274621384 ISS (ZARYA) 1 25544U 98067A 23168.39293994 .00016231 00000-0 29044-3 0 9993 2 25544 51.6417 327.5006 0004293 56.3761 38.9062 15.50127835401825 CXO 1 25867U 99040B 23167.95598547 .00000258 00000-0 00000-0 0 9996 2 25867 37.6044 196.8849 9057103 262.3393 359.8060 0.37808990 13180 ...Continue Reading

[TLELIST] Current TLEs

June 16th 2023 PDT

HST 1 20580U 90037B 23167.02658203 .00004025 00000-0 21017-3 0 9994 2 20580 28.4696 275.7297 0002583 15.9551 148.2992 15.13269801621555 ISS (ZARYA) 1 25544U 98067A 23167.41671756 .00158143 00000-0 27112-2 0 9993 2 25544 51.6403 332.3542 0005521 41.1341 2.8285 15.50118058401677 CXO 1 25867U 99040B 23167.95598547 .00000258 00000-0 00000-0 0 9996 2 25867 37.6044 196.8849 9057103 262.3393 359.8060 0.37808990 13180 ...Continue Reading

[TLELIST] Current TLEs

June 16th 2023 PDT

HST 1 20580U 90037B 23167.02658203 .00004025 00000-0 21017-3 0 9994 2 20580 28.4696 275.7297 0002583 15.9551 148.2992 15.13269801621555 ISS (ZARYA) 1 25544U 98067A 23167.41671756 .00158143 00000-0 27112-2 0 9993 2 25544 51.6403 332.3542 0005521 41.1341 2.8285 15.50118058401677 CXO 1 25867U 99040B 23167.95598547 .00000258 00000-0 00000-0 0 9996 2 25867 37.6044 196.8849 9057103 262.3393 359.8060 0.37808990 13180 ...Continue Reading

[TLELIST] Current TLEs

June 15th 2023 PDT

HST 1 20580U 90037B 23165.70280257 .00003824 00000-0 19926-3 0 9999 2 20580 28.4697 284.5378 0002488 2.2641 136.0248 15.13259661621087 ISS (ZARYA) 1 25544U 98067A 23166.39186699 .00013044 00000-0 22976-3 0 9990 2 25544 51.6420 337.4223 0005417 81.7620 357.2264 15.50775554401519 CXO 1 25867U 99040B 23165.31217751 .00000236 00000-0 00000+0 0 9994 2 25867 37.6279 197.2753 9055592 262.0049 359.9279 0.37809856 24327 ...Continue Reading

[TLELIST] Current TLEs

June 14th 2023 PDT

HST 1 20580U 90037B 23164.78221896 .00003995 00000-0 20866-3 0 9994 2 20580 28.4697 290.6630 0002416 352.3228 160.9073 15.13253082620944 ISS (ZARYA) 1 25544U 98067A 23165.35874961 .00012381 00000-0 21872-3 0 9998 2 25544 51.6420 342.5433 0005347 81.2977 346.2530 15.50746744401356 CXO 1 25867U 99040B 23165.31217751 .00000236 00000-0 00000+0 0 9994 2 25867 37.6279 197.2753 9055592 262.0049 359.9279 0.37809856 24327 ...Continue Reading

[TLELIST] Current TLEs

June 13th 2023 PDT

HST 1 20580U 90037B 23163.78645934 .00004374 00000-0 22944-3 0 9997 2 20580 28.4699 297.2884 0002356 340.9284 136.9157 15.13246027620798 ISS (ZARYA) 1 25544U 98067A 23164.45988002 .00012421 00000-0 21957-3 0 9999 2 25544 51.6423 347.0020 0005355 78.1758 7.9884 15.50724144401210 CXO 1 25867U 99040B 23165.31217751 .00000236 00000-0 00000+0 0 9994 2 25867 37.6279 197.2753 9055592 262.0049 359.9279 0.37809856 24327 ...Continue Reading
  • This mailing list is a public mailing list - anyone may join or leave, at any time.
  • This mailing list is announce-only.

International Space Station (ISS) / Hubble Space Telescope (HST) / Chandra X-Ray Observatory Orbital Data via EMAIL

Privacy Policy:

Private list